Theta_e
286 286 286 285 286 286 285 284 283 283 284 283 283 284 284 284 283 282 282 281 282 282 282 282 282 283 285 282 281 282 283 283 283 281 281 281 281 280 282 280 279 280
287 287 289 288 287 287 286 285 285 284 284 284 284 283 284 283 283 282 283 282 282 283 283 282 282 283 282 282 281 281 282 282 283 284 281 281 282 280 281 280 280 279
286 285 286 286 287 287 286 286 285 285 284 285 284 283 284 283 284 282 282 282 282 282 282 282 282 282 282 282 281 282 283 281 282 281 282 282 282 281 282 280 280 279
287 286 287 286 286 286 286 285 285 285 284 284 284 285 285 285 284 283 283 285 283 283 283 281 282 282 281 281 281 281 282 281 282 281 281 282 283 282 282 281 281 281
288 288 286 286 286 286 285 285 286 285 284 285 285 284 285 284 283 283 283 283 282 283 283 283 282 282 281 281 281 281 281 282 281 280 281 281 282 282 283 282 281 281
288 287 287 287 286 286 286 285 286 286 286 285 285 285 285 284 283 283 284 283 283 283 283 282 282 282 282 281 281 281 281 282 281 280 280 281 281 282 282 282 281 281
288 287 287 286 286 285 286 286 286 287 286 286 284 285 285 284 284 284 283 283 283 283 283 283 283 282 282 282 281 281 281 281 281 280 280 281 281 281 281 281 282 282
288 287 287 286 286 286 286 287 287 287 286 284 285 286 284 285 284 284 284 283 283 283 283 283 283 283 282 282 282 281 281 282 282 281 280 281 280 280 281 281 281 281
287 287 287 286 285 287 287 287 287 287 286 285 286 286 285 285 285 284 284 283 283 283 283 283 283 283 282 282 282 282 282 282 282 281 281 281 281 281 281 281 280 281
287 287 286 286 286 287 287 287 287 287 286 285 286 286 285 286 284 284 284 283 283 283 283 283 283 283 282 282 282 282 282 282 282 282 282 282 282 282 281 281 281 280
286 286 286 286 287 287 287 287 287 287 286 286 286 286 286 285 285 283 283 283 284 284 284 283 283 283 283 282 282 282 282 282 282 282 282 282 282 282 283 282 281 281
286 286 286 286 287 287 287 287 287 286 286 286 285 286 286 285 285 285 285 284 284 284 284 284 284 284 283 283 283 283 282 282 282 282 282 282 282 282 282 282 282 282
286 287 287 287 287 287 287 286 286 286 285 286 286 285 285 285 285 285 285 285 285 284 284 284 284 284 284 283 283 283 282 282 282 282 282 282 282 282 282 282 282 282
287 287 287 287 287 286 286 286 286 286 286 286 285 285 285 285 285 286 286 284 285 284 285 285 284 284 283 283 283 283 283 282 282 282 282 282 282 282 282 282 282 282
287 286 286 286 286 285 285 286 286 286 285 285 284 285 285 285 285 285 285 285 284 284 284 284 284 285 285 284 284 283 283 283 283 283 282 282 282 282 282 282 282 282
286 285 286 285 285 285 286 286 285 285 285 285 285 285 284 284 284 284 284 284 284 284 284 284 285 285 286 288 288 286 284 284 283 283 283 282 282 282 282 282 282 282
285 285 285 285 285 285 285 285 285 285 284 284 284 284 284 284 283 284 284 284 284 284 284 284 285 286 288 289 290 291 288 285 284 284 283 283 282 282 282 282 282 282
285 285 285 285 285 285 285 285 285 284 284 284 284 284 284 283 283 284 284 284 284 284 284 285 285 287 289 290 291 291 290 288 286 285 285 284 283 283 283 283 283 283
285 285 285 285 285 285 285 285 284 284 284 284 284 284 283 283 284 284 284 284 283 284 284 285 285 287 289 290 290 291 291 290 287 286 285 285 285 284 284 283 283 283
285 285 285 285 285 285 284 284 284 284 285 285 284 284 283 284 284 283 284 284 284 284 284 285 285 287 289 290 290 290 291 290 287 286 286 285 285 285 285 284 284 283
285 285 285 286 285 285 284 284 284 284 284 284 284 284 284 284 284 284 284 284 284 284 284 284 285 288 289 289 290 290 291 290 287 286 286 285 285 285 285 285 284 284
285 285 286 285 285 284 284 284 284 284 284 284 284 284 284 284 284 284 284 284 284 284 283 284 285 288 289 289 290 290 291 288 286 285 285 285 285 285 285 285 284 284
286 285 286 286 285 285 284 284 284 284 284 284 284 284 284 284 284 284 284 284 284 283 283 284 285 287 288 289 289 290 290 286 285 284 284 284 284 284 284 284 284 284
286 286 285 286 285 285 285 285 285 285 285 284 284 284 284 285 284 284 284 284 284 284 284 284 284 286 287 288 289 290 289 285 284 283 283 283 283 283 283 283 284 285
286 286 285 285 285 286 286 285 285 285 285 284 284 284 285 285 284 284 284 284 284 284 283 284 284 285 287 288 289 289 288 285 284 283 282 283 282 282 283 283 283 283
286 285 285 285 285 286 286 286 285 285 284 284 284 284 284 284 284 283 283 284 284 284 284 284 284 284 285 287 288 288 289 286 283 282 282 282 282 282 282 282 282 282
Wind_Speed
6 4 6 6 6 6 6 5 5 6 6 6 6 7 6 7 4 3 4 4 4 5 5 5 4 4 4 4 3 3 3 4 4 3 3 3 3 3 4 4 4 5
6 5 5 5 5 5 6 5 6 6 7 6 6 6 6 4 6 4 5 5 4 6 5 5 5 5 5 4 4 4 4 4 5 2 3 4 5 3 5 4 5 3
4 4 5 6 7 6 6 5 6 6 6 7 5 5 6 4 6 5 5 5 6 7 6 5 5 5 5 5 4 4 5 4 6 4 3 5 4 4 5 4 4 4
4 5 5 6 6 6 5 4 5 6 5 6 7 6 6 5 5 6 6 6 6 7 6 4 6 5 5 5 4 5 5 6 6 3 4 4 5 5 6 4 4 4
6 5 4 5 5 5 4 5 7 6 6 8 6 5 6 6 6 6 6 7 6 6 5 6 5 5 4 5 5 6 5 6 5 4 5 6 6 5 6 4 5 6
6 5 5 4 5 4 6 6 7 6 6 5 8 5 6 6 6 6 6 6 6 6 6 6 6 6 5 5 5 6 6 6 6 5 6 7 8 5 5 5 6 7
7 5 6 4 4 4 6 7 7 6 7 7 4 6 5 6 6 7 6 6 6 5 6 6 6 6 5 5 5 6 6 7 6 5 7 8 6 7 5 6 7 8
7 5 6 4 5 5 6 7 7 7 6 4 6 7 5 7 7 6 5 6 5 6 6 7 6 6 5 4 6 6 7 5 7 7 8 9 6 8 8 7 7 8
5 6 5 5 5 6 7 8 7 7 5 6 7 7 5 6 7 6 6 5 6 6 6 6 7 6 5 5 6 7 8 7 7 8 8 9 9 10 10 7 6 8
6 7 6 6 6 7 7 7 7 6 5 6 7 6 6 6 5 6 5 6 6 6 6 7 6 6 6 6 8 8 8 9 8 8 9 9 9 9 9 8 9 8
7 6 6 7 8 7 8 7 7 6 5 6 6 7 7 5 5 4 5 5 7 7 7 7 7 6 6 7 7 7 8 8 8 8 9 9 10 10 9 9 9 10
7 6 7 8 8 7 8 8 7 5 6 5 5 7 6 5 6 5 6 7 7 7 7 7 6 6 7 7 7 7 7 8 8 8 9 9 9 9 9 9 9 10
7 8 8 7 7 8 7 6 6 6 5 7 5 6 7 7 6 6 6 6 7 6 7 7 7 6 7 7 7 7 8 8 8 9 9 8 8 9 9 9 10 10
8 8 7 8 7 6 6 7 7 7 7 6 5 6 7 8 8 7 7 5 7 6 7 6 6 6 6 7 7 7 7 8 8 8 9 8 8 8 9 9 10 10
7 6 6 6 6 6 7 8 8 7 7 6 6 7 7 7 7 6 7 7 6 7 7 6 7 8 6 6 7 8 7 8 9 9 9 9 8 8 8 9 9 9
7 6 7 6 6 7 8 8 7 7 7 7 7 7 7 7 6 7 7 8 8 7 6 6 7 6 8 13 10 7 7 7 7 8 8 8 8 8 8 8 10 9
6 8 6 7 8 7 7 8 9 7 7 8 8 7 8 7 6 8 8 8 8 8 7 7 7 7 11 12 14 15 10 8 8 9 7 8 8 9 10 9 8 9
8 7 7 9 7 9 9 9 7 7 8 8 8 8 8 6 8 9 8 8 7 7 8 9 8 9 12 12 13 14 13 10 8 8 8 8 8 9 9 8 9 8
8 8 9 9 9 9 8 7 8 8 9 9 11 9 5 8 9 8 9 8 8 9 10 9 8 8 12 13 13 14 15 13 8 9 9 9 9 9 9 9 8 8
8 8 10 10 9 8 8 8 8 11 10 8 8 6 8 9 8 10 9 9 9 9 10 9 9 10 12 13 13 14 15 13 8 9 9 10 10 10 9 9 9 8
9 9 11 11 9 8 8 9 10 10 9 9 8 9 9 10 10 10 10 9 9 9 9 10 10 11 11 13 14 14 15 13 8 8 9 9 10 9 10 10 9 9
9 10 11 11 10 9 9 11 10 11 11 9 8 9 8 7 8 8 9 9 8 8 8 11 11 11 12 13 14 14 15 9 8 8 9 9 10 10 9 9 8 9
10 10 11 11 10 10 11 11 11 11 10 7 8 9 9 9 10 9 9 9 9 8 10 11 11 12 13 14 14 15 10 7 7 8 9 10 11 9 9 9 8 8
10 10 11 11 10 12 13 12 10 8 9 7 9 10 10 11 8 8 8 9 9 10 10 10 11 11 13 14 15 14 12 8 7 7 9 10 10 9 8 8 9 13
10 10 11 12 12 13 11 12 12 11 9 7 9 9 10 8 7 8 8 8 9 10 10 12 11 11 14 13 15 14 12 8 8 7 9 10 9 9 8 8 8 9
9 10 11 11 13 12 11 12 10 8 9 9 8 8 9 8 8 8 10 10 8 9 10 11 11 11 10 14 15 16 16 10 7 7 10 11 8 8 9 8 8 7
Wind_Direction
234 223 235 235 241 233 242 239 232 235 247 246 241 256 247 263 280 255 249 250 247 245 245 238 236 233 225 221 228 228 240 246 260 232 221 215 237 218 234 234 227 220
236 229 234 238 253 248 245 231 240 225 245 240 238 250 261 261 268 252 260 252 247 243 241 240 236 233 231 228 225 222 244 248 257 227 237 243 249 223 249 238 231 231
245 232 228 231 236 245 240 235 231 234 237 244 245 240 252 245 260 254 249 249 254 251 240 235 239 237 235 235 226 227 235 236 247 241 232 242 244 237 246 241 238 223
248 228 232 235 235 244 242 239 242 239 240 253 242 238 230 244 238 254 254 250 248 256 252 238 237 238 230 234 226 233 234 236 240 222 234 253 242 229 247 231 243 248
275 262 232 239 241 240 242 237 248 240 233 239 254 238 234 236 236 243 245 251 244 256 258 252 245 242 230 231 218 234 235 241 239 213 230 247 244 220 237 216 236 246
268 257 257 239 238 229 234 235 246 244 243 246 240 235 230 229 230 235 239 242 244 244 254 255 252 248 231 232 222 226 235 237 238 205 224 237 249 227 228 216 227 239
263 268 265 249 252 233 237 246 246 240 240 239 248 242 226 227 230 235 235 235 240 239 241 247 246 249 233 230 230 238 236 237 245 221 229 242 239 250 230 221 226 236
249 250 248 251 254 257 251 254 252 243 239 231 229 247 214 227 230 233 232 232 233 238 239 243 245 244 238 222 232 238 243 232 239 232 234 244 236 246 243 226 224 231
249 253 244 241 242 253 253 255 254 254 238 233 241 247 226 222 230 228 229 227 232 236 237 240 239 240 232 222 231 233 240 239 231 232 233 239 237 240 242 236 227 229
257 258 256 253 246 247 248 252 252 253 241 238 247 250 247 238 225 230 227 226 235 238 235 239 238 235 230 220 227 228 233 238 236 231 234 237 238 241 241 234 232 236
260 258 259 259 254 255 251 252 252 252 248 244 249 255 251 249 244 222 229 228 236 238 237 236 235 232 231 227 226 226 229 234 234 233 235 236 236 238 239 237 237 234
258 259 251 252 255 259 256 253 251 247 250 251 235 255 259 246 247 238 224 236 235 240 239 241 237 231 230 230 229 228 228 230 233 235 237 237 237 236 236 235 239 240
254 251 248 250 250 252 258 259 253 248 244 249 240 242 253 256 248 246 239 234 243 239 242 240 240 234 232 233 233 233 232 231 233 235 238 238 237 236 234 235 236 239
246 245 247 248 252 257 258 259 261 257 248 247 241 243 244 247 249 246 251 233 241 237 242 241 244 242 234 233 235 233 233 236 232 237 239 239 240 236 233 234 234 236
246 245 243 248 250 255 258 256 255 255 256 250 241 243 241 245 247 248 256 255 246 241 246 239 241 242 232 229 236 238 230 240 239 236 236 241 243 241 235 234 236 236
242 245 243 241 245 246 248 251 253 254 253 252 247 241 244 243 245 247 244 250 254 247 239 238 240 239 233 230 224 231 235 238 242 241 236 235 241 247 246 234 236 235
246 245 240 242 240 244 248 248 248 246 248 250 249 244 241 239 236 247 243 241 243 248 247 237 237 237 234 229 233 232 236 241 242 247 239 235 235 240 248 246 240 235
250 249 246 246 242 244 242 244 245 244 245 244 247 246 240 230 235 238 242 241 240 242 246 246 245 235 230 231 233 234 236 238 240 245 245 238 235 237 242 244 245 242
251 251 250 250 242 240 240 241 241 244 243 242 243 240 235 230 235 234 239 236 233 241 245 244 249 229 225 232 231 234 240 241 242 240 243 243 238 238 240 241 240 240
253 252 254 252 246 242 238 240 238 242 240 237 243 239 230 237 234 234 237 233 230 234 244 249 248 245 225 226 231 239 242 243 243 241 242 243 240 239 240 240 235 235
249 249 254 256 250 243 240 241 237 244 242 238 230 234 232 233 232 234 235 231 230 229 238 248 250 240 220 224 227 234 238 242 242 241 244 245 243 238 239 239 236 233
242 249 252 255 253 246 241 243 238 235 241 235 229 239 237 239 246 233 241 236 228 224 231 248 250 236 222 224 224 230 238 239 236 240 244 248 249 241 238 237 232 231
238 243 251 254 250 249 246 243 239 238 240 225 232 236 235 232 235 232 234 236 236 226 228 242 252 245 232 230 228 229 232 234 235 240 245 248 250 247 239 237 233 225
237 235 244 249 248 246 247 247 241 238 237 214 222 233 235 235 229 237 235 231 233 234 226 237 247 247 234 228 226 220 219 225 229 235 248 247 254 251 242 238 235 229
236 233 236 242 243 246 244 248 243 235 231 214 225 230 240 241 229 232 240 234 232 236 234 233 246 249 241 224 222 218 221 223 223 231 246 251 248 254 247 241 240 233
232 231 234 235 240 244 242 243 247 243 232 223 228 224 238 237 237 235 241 245 234 233 238 233 241 246 236 224 218 221 219 216 211 221 237 248 246 244 258 253 238 234